When you browse on this site, cookies collect data to enhance your experience and personalize the content and advertising you see.
Visit our Privacy Policy to learn more. By continuing to use the site, you agree to this use of cookies and data.
  • In Czech Republic
  • List of Countries
  • For 7 days
  • Water Temperature
  • Weather Map
  • Weather Widgets
  • user-avatar
    Login

    Hourly Weather El Copey

    Today, 27 February, Thursday

    Time Temperature Precipitation Wind Pressure Humidity
    00:00 +28°C° 0 mm 1 mps 745 mmHg 68%
    01:00 +28°C° 0 mm 1 mps 745 mmHg 71%
    02:00 +27°C° 0 mm 1 mps 745 mmHg 72%
    03:00 +27°C° 0 mm 1 mps 745 mmHg 74%
    04:00 +27°C° 0 mm 1 mps 744 mmHg 75%
    05:00 +27°C° 0 mm 1 mps 745 mmHg 73%
    06:00 +27°C° 0 mm 1 mps 745 mmHg 71%
    07:00 +28°C° 0 mm 1 mps 746 mmHg 68%
    08:00 +31°C° 0 mm 2 mps 746 mmHg 58%
    09:00 +34°C° 0 mm 2 mps 746 mmHg 48%
    10:00 +37°C° 0 mm 2 mps 747 mmHg 39%
    11:00 +37°C° 0 mm 2 mps 746 mmHg 37%
    12:00 +38°C° 0 mm 2 mps 745 mmHg 35%
    13:00 +39°C° 0 mm 2 mps 745 mmHg 33%
    14:00 +38°C° 0 mm 2 mps 744 mmHg 36%
    15:00 +37°C° 0 mm 2 mps 743 mmHg 40%
    16:00 +36°C° 0 mm 3 mps 743 mmHg 43%
    17:00 +34°C° 0 mm 2 mps 743 mmHg 48%
    18:00 +32°C° 0 mm 2 mps 744 mmHg 52%
    19:00 +30°C° 0 mm 1 mps 744 mmHg 57%
    20:00 +29°C° 0 mm 1 mps 744 mmHg 60%
    21:00 +29°C° 0 mm 1 mps 745 mmHg 64%
    22:00 +28°C° 0 mm 1 mps 745 mmHg 67%
    23:00 +27°C° 0 mm 1 mps 745 mmHg 68%

    Tomorrow, 28 February, Friday

    Time Temperature Precipitation Wind Pressure Humidity
    00:00 +27°C° 0 mm 1 mps 745 mmHg 70%
    01:00 +26°C° 0 mm 1 mps 745 mmHg 71%
    02:00 +26°C° 0 mm 1 mps 745 mmHg 73%
    03:00 +25°C° 0 mm 1 mps 744 mmHg 74%
    04:00 +25°C° 0 mm 1 mps 744 mmHg 76%
    05:00 +25°C° 0 mm 1 mps 745 mmHg 71%
    06:00 +25°C° 0 mm 1 mps 745 mmHg 67%
    07:00 +26°C° 0 mm 1 mps 746 mmHg 63%
    08:00 +29°C° 0 mm 2 mps 746 mmHg 53%
    09:00 +32°C° 0 mm 2 mps 746 mmHg 43%
    10:00 +36°C° 0 mm 3 mps 747 mmHg 32%
    11:00 +38°C° 0 mm 3 mps 746 mmHg 29%
    12:00 +39°C° 0 mm 2 mps 745 mmHg 25%
    13:00 +41°C° 0 mm 2 mps 744 mmHg 22%
    14:00 +41°C° 0 mm 2 mps 743 mmHg 21%
    15:00 +41°C° 0 mm 2 mps 743 mmHg 21%
    16:00 +41°C° 0 mm 2 mps 742 mmHg 21%
    17:00 +38°C° 0 mm 2 mps 742 mmHg 29%
    18:00 +35°C° 0 mm 2 mps 743 mmHg 36%
    19:00 +31°C° 0 mm 2 mps 743 mmHg 44%
    20:00 +30°C° 0 mm 1 mps 744 mmHg 49%
    21:00 +29°C° 0 mm 1 mps 744 mmHg 54%
    22:00 +28°C° 0 mm 1 mps 745 mmHg 59%
    23:00 +27°C° 0 mm 1 mps 745 mmHg 60%

    Day after tomorrow, 29 February, Saturday

    Time Temperature Precipitation Wind Pressure Humidity
    00:00 +27°C° 0 mm 1 mps 745 mmHg 62%
    01:00 +26°C° 0 mm 1 mps 745 mmHg 63%
    02:00 +26°C° 0 mm 1 mps 745 mmHg 64%
    03:00 +25°C° 0 mm 1 mps 745 mmHg 65%
    04:00 +25°C° 0 mm 2 mps 745 mmHg 66%
    05:00 +26°C° 0 mm 2 mps 745 mmHg 63%
    06:00 +26°C° 0 mm 2 mps 746 mmHg 61%
    07:00 +26°C° 0 mm 2 mps 746 mmHg 58%
    08:00 +29°C° 0 mm 2 mps 746 mmHg 50%
    09:00 +32°C° 0 mm 2 mps 747 mmHg 42%
    10:00 +36°C° 0 mm 2 mps 747 mmHg 35%
    11:00 +37°C° 0 mm 2 mps 746 mmHg 31%
    12:00 +39°C° 0 mm 2 mps 745 mmHg 28%
    13:00 +40°C° 0 mm 2 mps 744 mmHg 25%
    14:00 +40°C° 0 mm 2 mps 744 mmHg 25%
    15:00 +40°C° 0 mm 2 mps 743 mmHg 25%
    16:00 +40°C° 0 mm 2 mps 743 mmHg 25%
    17:00 +37°C° 0 mm 2 mps 743 mmHg 33%
    18:00 +34°C° 0 mm 2 mps 743 mmHg 40%
    19:00 +30°C° 0 mm 2 mps 743 mmHg 47%
    20:00 +29°C° 0 mm 1 mps 744 mmHg 52%
    21:00 +28°C° 0 mm 1 mps 744 mmHg 56%
    22:00 +27°C° 0 mm 1 mps 745 mmHg 61%
    23:00 +27°C° 0 mm 1 mps 745 mmHg 61%

    1 March, Sunday

    Time Temperature Precipitation Wind Pressure Humidity
    00:00 +26°C° 0 mm 1 mps 744 mmHg 61%
    01:00 +26°C° 0 mm 1 mps 744 mmHg 60%
    02:00 +26°C° 0 mm 1 mps 744 mmHg 61%
    03:00 +25°C° 0 mm 2 mps 744 mmHg 61%
    04:00 +25°C° 0 mm 2 mps 744 mmHg 62%
    05:00 +25°C° 0 mm 2 mps 744 mmHg 61%
    06:00 +26°C° 0 mm 2 mps 745 mmHg 60%
    07:00 +26°C° 0 mm 2 mps 745 mmHg 60%
    08:00 +29°C° 0 mm 2 mps 746 mmHg 51%
    09:00 +32°C° 0 mm 2 mps 746 mmHg 43%
    10:00 +36°C° 0 mm 2 mps 746 mmHg 35%
    11:00 +38°C° 0 mm 2 mps 746 mmHg 32%
    12:00 +39°C° 0 mm 2 mps 745 mmHg 29%
    13:00 +41°C° 0 mm 2 mps 744 mmHg 25%
    14:00 +41°C° 0 mm 2 mps 743 mmHg 25%
    15:00 +41°C° 0 mm 2 mps 743 mmHg 25%
    16:00 +41°C° 0 mm 2 mps 742 mmHg 25%
    17:00 +38°C° 0 mm 2 mps 742 mmHg 32%
    18:00 +35°C° 0 mm 2 mps 742 mmHg 40%
    19:00 +31°C° 0 mm 2 mps 742 mmHg 47%
    20:00 +30°C° 0 mm 2 mps 743 mmHg 51%
    21:00 +30°C° 0 mm 2 mps 743 mmHg 55%
    22:00 +29°C° 0 mm 1 mps 744 mmHg 59%
    23:00 +28°C° 0 mm 2 mps 744 mmHg 60%

    2 March, Monday

    Time Temperature Precipitation Wind Pressure Humidity
    00:00 +28°C° 0 mm 2 mps 743 mmHg 61%
    01:00 +27°C° 0 mm 2 mps 743 mmHg 62%
    02:00 +27°C° 0 mm 2 mps 743 mmHg 63%
    03:00 +27°C° 0 mm 2 mps 743 mmHg 63%
    04:00 +26°C° 0 mm 2 mps 743 mmHg 63%
    05:00 +27°C° 0 mm 2 mps 743 mmHg 61%
    06:00 +27°C° 0 mm 2 mps 744 mmHg 60%
    07:00 +27°C° 0 mm 2 mps 744 mmHg 58%
    08:00 +30°C° 0 mm 2 mps 745 mmHg 50%
    09:00 +34°C° 0 mm 2 mps 745 mmHg 42%
    10:00 +36°C° 0 mm 2 mps 745 mmHg 34%
    11:00 +38°C° 0 mm 2 mps 745 mmHg 31%
    12:00 +39°C° 0 mm 2 mps 744 mmHg 28%
    13:00 +41°C° 0 mm 2 mps 743 mmHg 25%
    14:00 +41°C° 0 mm 2 mps 742 mmHg 24%
    15:00 +42°C° 0 mm 3 mps 742 mmHg 24%
    16:00 +42°C° 0 mm 3 mps 741 mmHg 24%
    17:00 +38°C° 0 mm 2 mps 741 mmHg 31%
    18:00 +35°C° 0 mm 2 mps 741 mmHg 38%
    19:00 +32°C° 0 mm 2 mps 742 mmHg 45%
    20:00 +30°C° 0 mm 2 mps 742 mmHg 49%
    21:00 +29°C° 0 mm 1 mps 743 mmHg 52%
    22:00 +28°C° 0 mm 1 mps 743 mmHg 56%
    23:00 +28°C° 0 mm 1 mps 743 mmHg 58%

    3 March, Tuesday

    Time Temperature Precipitation Wind Pressure Humidity
    00:00 +27°C° 0 mm 1 mps 743 mmHg 59%
    01:00 +27°C° 0 mm 2 mps 743 mmHg 60%
    02:00 +27°C° 0 mm 2 mps 743 mmHg 60%
    03:00 +26°C° 0 mm 2 mps 742 mmHg 61%
    04:00 +26°C° 0 mm 2 mps 742 mmHg 61%
    05:00 +26°C° 0 mm 2 mps 743 mmHg 60%
    06:00 +27°C° 0 mm 2 mps 743 mmHg 58%
    07:00 +27°C° 0 mm 2 mps 744 mmHg 57%
    08:00 +30°C° 0 mm 2 mps 744 mmHg 49%
    09:00 +34°C° 0 mm 2 mps 744 mmHg 41%
    10:00 +37°C° 0 mm 2 mps 745 mmHg 34%
    11:00 +39°C° 0 mm 2 mps 744 mmHg 30%
    12:00 +40°C° 0 mm 2 mps 743 mmHg 26%
    13:00 +42°C° 0 mm 2 mps 742 mmHg 22%
    14:00 +42°C° 0 mm 2 mps 742 mmHg 22%
    15:00 +43°C° 0 mm 3 mps 741 mmHg 22%
    16:00 +43°C° 0 mm 3 mps 741 mmHg 21%
    17:00 +39°C° 0 mm 2 mps 741 mmHg 28%
    18:00 +36°C° 0 mm 2 mps 741 mmHg 35%
    19:00 +32°C° 0 mm 2 mps 742 mmHg 41%
    20:00 +31°C° 0 mm 2 mps 742 mmHg 46%
    21:00 +30°C° 0 mm 1 mps 743 mmHg 51%
    22:00 +29°C° 0 mm 1 mps 743 mmHg 56%
    23:00 +28°C° 0 mm 1 mps 743 mmHg 57%
    Show more